"startDT [UTC]","vpos","CH4 [ppm]","stdev(CH4) [ppm]","CO2 [ppm]","stdev(CO2) [ppm]","H2O_reported [%]","stdev(H2O_reported)","CavityPressure [torr]","CavityTemp [C]","OutletValve","CH4_dry [ppm]","CO2_dry [ppm]","DasTemp [C]","EtalonTemp [C]","WarmBoxTemp [C]","MPVPosition","T_ECpre [C]","T_EC1 [C]","T_EC2 [C]","p_inlet [hPa]","p_in [hPa]","p_out [hPa]","T_inlet [C]","RH_inlet [%]","dwpt_inlet [C]","T_vent [C]","RH_vent [%]","dwpt_vent [C]","flow_vent [l min-1]","flow_inlet [l min-1]","dwpt_sample [C]","T_room [C]"
2015-11-05 00:00:00,0.0,2.01224,0.00130,404.487,0.029,0.1529,0.0015,139.999,45.000,31700.58392,2.01520,405.233,33.951,45.069,45.000,0.00,0.09,-272.76,-272.80,-5,522,-951,19.6,5.1,-20.8,19.8,5.2,-20.5,5.73,1.98,-13.1,26.0
2015-11-05 00:01:00,0.0,2.01099,0.00133,404.540,0.073,0.1523,0.0016,139.998,45.000,31700.05759,2.01414,405.281,33.956,45.069,45.000,0.00,0.09,-272.75,-272.80,-6,522,-951,19.6,5.2,-20.7,19.8,5.2,-20.4,5.73,2.11,-13.1,26.0
2015-11-05 00:02:00,0.0,2.01855,0.00889,404.682,0.179,0.1524,0.0017,139.999,45.000,31699.92471,2.02089,405.421,33.975,45.069,45.000,0.00,0.09,-272.75,-272.80,-6,522,-951,19.6,5.2,-20.7,19.8,5.2,-20.4,5.73,2.12,-13.1,26.0
2015-11-05 00:03:00,0.0,2.03606,0.00271,405.108,0.105,0.1556,0.0025,139.999,45.000,31701.14399,2.03907,405.866,33.961,45.069,45.000,0.00,0.09,-272.75,-272.81,-6,522,-951,19.6,5.3,-20.5,19.8,5.3,-20.3,5.73,2.00,-13.1,26.0
2015-11-05 00:04:00,0.0,2.03123,0.00286,405.024,0.084,0.1589,0.0015,140.000,45.000,31701.77583,2.03439,405.798,33.984,45.069,45.000,0.00,0.09,-272.75,-272.81,-6,522,-951,19.6,5.4,-20.2,19.8,5.4,-20.1,5.73,1.88,-13.1,26.0
2015-11-05 00:05:00,0.0,2.03171,0.00125,405.038,0.041,0.1611,0.0016,139.999,45.000,31701.52857,2.03491,405.826,33.986,45.069,45.000,0.00,0.09,-272.74,-272.80,-6,522,-951,19.6,5.4,-20.1,19.8,5.5,-19.9,5.73,1.91,-13.1,26.0
2015-11-05 00:06:00,0.0,2.02926,0.00452,404.987,0.077,0.1612,0.0013,139.999,45.000,31702.05052,2.03281,405.778,33.983,45.069,45.000,0.00,0.09,-272.75,-272.81,-6,522,-951,19.6,5.5,-20.1,19.8,5.5,-19.8,5.73,2.03,-13.1,26.0
2015-11-05 00:07:00,0.0,2.02615,0.00161,404.927,0.056,0.1595,0.0014,140.000,45.000,31701.99035,2.02939,405.708,33.974,45.069,45.000,0.00,0.09,-272.75,-272.81,-5,522,-951,19.6,5.4,-20.1,19.8,5.5,-19.9,5.73,2.14,-13.1,26.0
2015-11-05 00:08:00,0.0,2.02447,0.00158,404.882,0.046,0.1594,0.0022,139.999,45.000,31702.13088,2.02773,405.661,33.946,45.069,45.000,0.00,0.09,-272.74,-272.81,-5,522,-951,19.6,5.4,-20.2,19.8,5.5,-19.9,5.73,2.08,-13.1,26.0
2015-11-05 00:09:00,0.0,2.01987,0.00170,404.838,0.045,0.1576,0.0018,139.997,45.000,31701.38395,2.02310,405.609,33.959,45.069,45.000,0.00,0.09,-272.74,-272.81,-6,522,-951,19.6,5.4,-20.2,19.9,5.4,-19.9,5.73,1.94,-13.1,26.0
2015-11-05 00:10:00,0.0,2.02380,0.00453,404.903,0.130,0.1581,0.0016,139.999,45.000,31703.97139,2.02710,405.679,33.949,45.070,45.000,0.00,0.09,-272.75,-272.81,-6,522,-951,19.6,5.3,-20.3,19.8,5.4,-20.0,5.73,1.87,-13.1,26.0
2015-11-05 00:11:00,0.0,2.01586,0.00065,404.687,0.065,0.1559,0.0018,139.997,45.000,31703.94732,2.01894,405.445,33.970,45.070,45.000,0.00,0.09,-272.75,-272.80,-6,522,-951,19.6,5.3,-20.4,19.8,5.4,-20.1,5.73,1.94,-13.1,26.0
2015-11-05 00:12:00,0.0,2.01764,0.00186,404.801,0.068,0.1551,0.0020,140.001,45.000,31701.89101,2.02081,405.560,33.976,45.070,45.000,0.00,0.09,-272.75,-272.79,-6,522,-951,19.7,5.2,-20.5,19.8,5.3,-20.2,5.73,2.09,-13.1,26.0
2015-11-05 00:13:00,0.0,2.01376,0.00054,404.750,0.084,0.1553,0.0018,140.001,45.000,31701.85606,2.01686,405.508,33.991,45.069,45.000,0.00,0.09,-272.76,-272.81,-6,522,-951,19.7,5.2,-20.6,19.8,5.3,-20.3,5.73,2.13,-13.1,26.0
2015-11-05 00:14:00,0.0,2.01473,0.00141,404.776,0.028,0.1525,0.0019,139.999,45.000,31702.16128,2.01768,405.520,34.000,45.069,45.000,0.00,0.09,-272.75,-272.81,-6,522,-951,19.7,5.1,-20.7,19.8,5.2,-20.4,5.73,2.03,-13.1,26.0
2015-11-05 00:15:00,0.0,2.01426,0.00122,404.733,0.053,0.1512,0.0018,140.001,45.000,31702.51973,2.01738,405.473,34.000,45.069,45.000,0.00,0.09,-272.75,-272.80,-6,522,-951,19.6,5.1,-20.8,19.8,5.2,-20.5,5.73,1.90,-13.1,26.0
2015-11-05 00:16:00,0.0,2.01252,0.00048,404.673,0.045,0.1525,0.0020,140.001,45.000,31703.06046,2.01554,405.417,34.002,45.069,45.000,0.00,0.09,-272.75,-272.81,-5,522,-951,19.7,5.1,-20.7,19.9,5.2,-20.5,5.73,1.88,-13.1,26.0
2015-11-05 00:17:00,0.0,2.01161,0.00096,404.624,0.080,0.1522,0.0016,140.000,45.000,31703.54613,2.01463,405.363,34.002,45.069,45.000,0.00,0.09,-272.76,-272.81,-6,522,-951,19.6,5.1,-20.7,19.8,5.2,-20.4,5.73,2.01,-13.1,26.0
2015-11-05 00:18:00,0.0,2.01274,0.00053,404.820,0.085,0.1516,0.0012,140.001,45.000,31704.06311,2.01579,405.564,34.002,45.069,45.000,0.00,0.09,-272.75,-272.80,-6,522,-951,19.7,5.1,-20.8,19.9,5.2,-20.5,5.73,2.13,-13.1,26.1
2015-11-05 00:19:00,0.0,2.01119,0.00037,404.567,0.086,0.1509,0.0019,140.001,45.000,31703.49007,2.01420,405.305,34.006,45.069,45.000,0.00,0.09,-272.74,-272.81,-6,522,-951,19.7,5.1,-20.8,19.9,5.2,-20.5,5.73,2.10,-13.1,26.0
2015-11-05 00:20:00,0.0,2.01231,0.00078,404.730,0.121,0.1526,0.0016,139.997,45.000,31703.06184,2.01527,405.469,34.002,45.069,45.000,0.00,0.09,-272.75,-272.82,-6,522,-951,19.6,5.1,-20.8,19.9,5.2,-20.5,5.73,1.96,-13.1,26.0
2015-11-05 00:21:00,0.0,2.01485,0.00127,405.052,0.111,0.1518,0.0017,139.999,45.000,31704.18901,2.01772,405.790,34.002,45.069,45.000,0.00,0.09,-272.74,-272.81,-6,522,-951,19.6,5.1,-20.8,19.8,5.2,-20.5,5.73,1.87,-13.0,26.0
2015-11-05 00:22:00,0.0,2.01969,0.00128,405.114,0.032,0.1511,0.0013,139.999,45.000,31703.30046,2.02260,405.853,33.999,45.069,45.000,0.00,0.09,-272.74,-272.81,-6,522,-951,19.6,5.1,-20.8,19.9,5.1,-20.6,5.73,1.94,-13.0,26.0
2015-11-05 00:23:00,0.0,2.02158,0.00073,405.140,0.037,0.1502,0.0009,139.998,45.000,31703.13061,2.02458,405.874,33.990,45.070,45.000,0.00,0.09,-272.75,-272.81,-6,522,-951,19.7,5.1,-20.9,19.8,5.1,-20.6,5.73,2.08,-13.1,26.0
2015-11-05 00:24:00,0.0,2.01704,0.00181,405.094,0.030,0.1503,0.0018,140.001,45.000,31703.61692,2.02015,405.829,33.999,45.070,45.000,0.00,0.09,-272.75,-272.81,-5,522,-952,19.6,5.1,-20.8,19.9,5.1,-20.6,5.73,2.14,-13.1,26.0
2015-11-05 00:25:00,0.0,2.01949,0.00183,405.099,0.101,0.1518,0.0019,139.999,45.000,31704.06539,2.02229,405.836,34.002,45.070,45.000,0.00,0.09,-272.74,-272.80,-5,522,-952,19.7,5.1,-20.8,19.9,5.2,-20.5,5.73,2.02,-13.1,26.0
2015-11-05 00:26:00,0.0,2.02228,0.00133,405.289,0.107,0.1525,0.0019,139.998,45.000,31702.96427,2.02536,406.036,34.005,45.069,45.000,0.00,0.09,-272.75,-272.81,-6,522,-951,19.7,5.2,-20.7,19.8,5.2,-20.5,5.73,1.90,-13.0,26.0
2015-11-05 00:27:00,0.0,2.02453,0.00112,405.434,0.067,0.1533,0.0019,140.000,45.000,31704.31115,2.02748,406.180,34.019,45.069,45.000,0.00,0.09,-272.75,-272.80,-6,522,-952,19.6,5.2,-20.7,19.9,5.2,-20.4,5.73,1.89,-13.0,26.0
2015-11-05 00:28:00,0.0,2.02890,0.00331,405.465,0.029,0.1538,0.0017,140.001,45.000,31704.70596,2.03198,406.218,34.020,45.069,45.000,0.00,0.09,-272.75,-272.80,-6,522,-952,19.7,5.2,-20.6,19.9,5.2,-20.4,5.73,2.02,-13.0,26.0
2015-11-05 00:29:00,0.0,2.02791,0.00069,405.457,0.023,0.1536,0.0018,139.997,45.000,31703.36553,2.03095,406.209,34.029,45.069,45.000,0.00,0.09,-272.75,-272.80,-6,522,-951,19.7,5.2,-20.6,19.9,5.2,-20.3,5.73,2.13,-13.0,26.0
2015-11-05 00:30:00,0.0,2.02719,0.00147,405.458,0.077,0.1542,0.0018,140.000,45.000,31705.57483,2.03039,406.217,34.015,45.069,45.000,0.00,0.09,-272.75,-272.81,-6,522,-952,19.7,5.2,-20.6,19.9,5.3,-20.3,5.73,2.09,-13.0,26.0
2015-11-05 00:31:00,0.0,2.01901,0.00214,405.177,0.140,0.1558,0.0018,140.000,45.000,31705.85501,2.02231,405.939,34.009,45.069,45.000,0.00,0.09,-272.75,-272.80,-6,522,-952,19.7,5.3,-20.5,19.9,5.3,-20.2,5.73,1.95,-13.0,26.0
2015-11-05 00:32:00,0.0,2.02011,0.00131,405.391,0.102,0.1573,0.0017,140.001,45.000,31706.83909,2.02311,406.156,34.003,45.069,45.000,0.00,0.09,-272.74,-272.80,-5,522,-952,19.6,5.3,-20.4,19.9,5.3,-20.1,5.73,1.87,-13.0,26.0
2015-11-05 00:33:00,0.0,2.02573,0.00175,405.491,0.040,0.1577,0.0019,140.000,45.000,31706.62279,2.02888,406.261,34.004,45.069,45.000,0.00,0.09,-272.76,-272.81,-6,522,-951,19.7,5.3,-20.3,19.9,5.4,-20.1,5.73,1.95,-13.0,26.0
2015-11-05 00:34:00,0.0,2.02130,0.00110,405.632,0.066,0.1576,0.0020,139.998,45.000,31706.88162,2.02451,406.403,34.002,45.069,45.000,0.00,0.09,-272.76,-272.81,-6,522,-951,19.6,5.3,-20.3,19.9,5.4,-20.0,5.73,2.10,-13.0,26.0
2015-11-05 00:35:00,0.0,2.01921,0.00124,405.450,0.192,0.1565,0.0025,139.999,45.000,31708.52304,2.02249,406.224,34.020,45.069,45.000,0.00,0.09,-272.75,-272.81,-6,522,-952,19.7,5.3,-20.4,19.9,5.4,-20.1,5.73,2.13,-13.0,26.0
2015-11-05 00:36:00,0.0,2.01759,0.00173,405.203,0.130,0.1562,0.0020,140.004,45.000,31708.83702,2.02062,405.963,34.023,45.069,45.000,0.00,0.09,-272.75,-272.81,-6,522,-951,19.7,5.3,-20.4,19.9,5.3,-20.2,5.73,2.02,-13.0,26.1
2015-11-05 00:37:00,0.0,2.01604,0.00088,405.036,0.097,0.1561,0.0021,140.002,45.000,31709.60549,2.01925,405.805,34.020,45.069,45.000,0.00,0.09,-272.75,-272.81,-6,522,-952,19.7,5.3,-20.4,19.9,5.3,-20.2,5.73,1.88,-13.0,26.1
2015-11-05 00:38:00,0.0,2.01619,0.00175,404.937,0.157,0.1584,0.0019,140.001,45.000,31709.06520,2.01925,405.708,34.041,45.069,45.000,0.00,0.09,-272.75,-272.80,-6,523,-951,19.7,5.3,-20.3,19.9,5.4,-20.1,5.73,1.90,-13.0,26.1
2015-11-05 00:39:00,0.0,2.01910,0.00095,405.243,0.115,0.1584,0.0016,139.997,45.000,31709.63257,2.02221,406.014,34.062,45.069,45.000,0.00,0.09,-272.75,-272.80,-6,522,-951,19.7,5.3,-20.3,19.9,5.4,-20.0,5.73,2.04,-13.0,26.1
2015-11-05 00:40:00,0.0,2.01883,0.00168,405.129,0.078,0.1588,0.0009,139.998,44.999,31710.72266,2.02207,405.911,34.062,45.069,45.000,0.00,0.09,-272.76,-272.81,-5,522,-951,19.7,5.4,-20.2,19.9,5.4,-20.0,5.73,2.14,-13.0,26.1
2015-11-05 00:41:00,0.0,2.01592,0.00125,404.912,0.033,0.1603,0.0016,140.001,45.000,31709.04250,2.01917,405.697,34.069,45.069,45.000,0.00,0.09,-272.75,-272.81,-6,522,-952,19.7,5.4,-20.2,19.9,5.4,-19.9,5.73,2.08,-13.0,26.1
2015-11-05 00:42:00,0.0,2.01689,0.00193,404.964,0.080,0.1599,0.0016,140.000,45.001,31712.10390,2.01990,405.742,34.085,45.069,45.000,0.00,0.09,-272.74,-272.80,-6,522,-951,19.7,5.4,-20.1,19.9,5.4,-19.9,5.73,1.93,-13.0,26.1
2015-11-05 00:43:00,0.0,2.01589,0.00150,404.962,0.087,0.1621,0.0019,139.998,45.003,31713.00419,2.01931,405.758,34.088,45.069,45.000,0.00,0.09,-272.75,-272.80,-6,522,-952,19.7,5.5,-20.0,19.9,5.5,-19.8,5.73,1.87,-13.0,26.1
2015-11-05 00:44:00,0.0,2.01593,0.00180,404.783,0.070,0.1616,0.0018,139.996,45.002,31714.38713,2.01900,405.571,34.090,45.069,45.000,0.00,0.09,-272.76,-272.80,-6,522,-952,19.7,5.5,-20.0,19.9,5.5,-19.8,5.73,1.97,-13.0,26.1
2015-11-05 00:45:00,0.0,2.01898,0.00128,404.951,0.080,0.1633,0.0024,139.998,45.002,31717.13275,2.02224,405.750,34.069,45.069,45.000,0.00,0.09,-272.75,-272.80,-6,522,-952,19.7,5.5,-19.9,19.9,5.5,-19.7,5.73,2.11,-13.0,26.1
2015-11-05 00:46:00,0.0,2.01790,0.00055,404.881,0.051,0.1650,0.0017,140.002,45.001,31719.42247,2.02119,405.684,34.069,45.069,45.000,0.00,0.09,-272.75,-272.81,-6,523,-952,19.7,5.6,-19.8,19.9,5.6,-19.6,5.73,2.13,-13.0,26.1
2015-11-05 00:47:00,0.0,2.01970,0.00077,404.986,0.036,0.1649,0.0016,139.998,45.001,31717.28971,2.02293,405.791,34.071,45.069,45.000,0.00,0.09,-272.75,-272.82,-6,522,-952,19.7,5.6,-19.8,19.9,5.6,-19.6,5.73,1.98,-13.0,26.1
2015-11-05 00:48:00,0.0,2.01862,0.00092,404.864,0.051,0.1624,0.0013,140.000,45.000,31716.10013,2.02198,405.661,34.069,45.069,45.000,0.00,0.09,-272.74,-272.81,-5,522,-952,19.7,5.5,-19.9,19.9,5.6,-19.6,5.73,1.87,-13.0,26.1
2015-11-05 00:49:00,0.0,2.01915,0.00121,404.862,0.048,0.1633,0.0015,139.998,45.000,31716.05197,2.02227,405.658,34.067,45.069,45.000,0.00,0.09,-272.75,-272.81,-6,522,-952,19.7,5.5,-19.9,19.9,5.6,-19.7,5.73,1.92,-13.0,26.1
2015-11-05 00:50:00,0.0,2.02201,0.00076,404.930,0.034,0.1640,0.0015,139.999,45.000,31715.95754,2.02531,405.732,34.069,45.069,45.000,0.00,0.09,-272.76,-272.81,-6,522,-952,19.7,5.5,-19.9,19.9,5.6,-19.7,5.73,2.07,-13.0,26.1
2015-11-05 00:51:00,0.0,2.02256,0.00099,404.899,0.042,0.1654,0.0021,139.999,45.000,31714.89295,2.02574,405.706,34.090,45.070,45.000,0.00,0.09,-272.76,-272.81,-6,522,-952,19.7,5.6,-19.8,19.9,5.6,-19.6,5.73,2.14,-13.0,26.1
2015-11-05 00:52:00,0.0,2.02351,0.00105,404.898,0.042,0.1667,0.0019,140.001,44.999,31714.94871,2.02696,405.714,34.107,45.069,45.000,0.00,0.09,-272.74,-272.81,-6,522,-952,19.7,5.6,-19.7,19.9,5.7,-19.5,5.73,2.04,-13.0,26.1
2015-11-05 00:53:00,0.0,2.02292,0.00112,404.836,0.043,0.1689,0.0018,140.000,44.999,31716.96453,2.02615,405.660,34.120,45.069,45.000,0.00,0.09,-272.75,-272.81,-6,523,-952,19.7,5.7,-19.5,19.9,5.7,-19.3,5.73,1.90,-13.0,26.1
2015-11-05 00:54:00,0.0,2.02453,0.00042,404.891,0.040,0.1692,0.0014,140.001,44.999,31716.36983,2.02796,405.719,34.121,45.069,45.000,0.00,0.09,-272.75,-272.81,-6,522,-952,19.7,5.7,-19.4,19.9,5.8,-19.2,5.73,1.88,-13.0,26.1
2015-11-05 00:55:00,0.0,2.02408,0.00060,404.834,0.046,0.1702,0.0017,140.001,45.000,31716.58398,2.02747,405.666,34.116,45.069,45.000,0.00,0.09,-272.75,-272.80,-6,523,-952,19.7,5.8,-19.4,19.9,5.8,-19.1,5.73,2.01,-13.0,26.1
2015-11-05 00:56:00,0.0,2.02496,0.00056,404.838,0.041,0.1710,0.0015,140.000,45.000,31715.89428,2.02839,405.674,34.093,45.069,45.000,0.00,0.09,-272.75,-272.80,-6,523,-952,19.7,5.8,-19.3,19.9,5.8,-19.1,5.73,2.13,-13.0,26.1
2015-11-05 00:57:00,0.0,2.02495,0.00074,404.830,0.029,0.1713,0.0015,139.999,45.000,31714.16253,2.02833,405.666,34.099,45.069,45.000,0.00,0.09,-272.75,-272.81,-6,522,-952,19.7,5.8,-19.3,19.9,5.9,-19.1,5.73,2.10,-13.0,26.1
2015-11-05 00:58:00,0.0,2.02539,0.00052,404.842,0.027,0.1725,0.0013,140.000,44.999,31715.34289,2.02882,405.686,34.111,45.069,45.000,0.00,0.09,-272.75,-272.80,-6,523,-952,19.7,5.8,-19.3,19.9,5.9,-19.1,5.73,1.95,-13.0,26.1
2015-11-05 00:59:00,0.0,2.02536,0.00040,404.817,0.036,0.1749,0.0017,140.000,44.999,31714.80546,2.02890,405.670,34.121,45.069,45.000,0.00,0.09,-272.74,-272.81,-6,523,-952,19.7,5.9,-19.1,19.9,5.9,-18.9,5.73,1.87,-13.0,26.1
2015-11-05 01:00:00,0.0,2.02587,0.00069,404.819,0.032,0.1768,0.0015,140.001,44.999,31714.82958,2.02936,405.684,34.126,45.069,45.000,0.00,0.09,-272.75,-272.81,-6,522,-952,19.7,6.0,-18.9,19.9,6.0,-18.8,5.73,1.95,-13.0,26.1
2015-11-05 01:01:00,0.0,2.02669,0.00063,404.903,0.044,0.1783,0.0016,140.001,44.999,31716.05123,2.03028,405.772,34.128,45.069,45.000,0.00,0.09,-272.75,-272.81,-6,523,-952,19.7,6.0,-18.8,19.9,6.0,-18.7,5.73,2.10,-13.0,26.1
2015-11-05 01:02:00,0.0,2.02749,0.00052,404.955,0.040,0.1767,0.0012,140.000,44.999,31715.81146,2.03097,405.819,34.125,45.069,45.000,0.00,0.09,-272.75,-272.80,-6,523,-952,19.7,6.0,-18.8,19.9,6.0,-18.7,5.73,2.14,-13.0,26.1
2015-11-05 01:03:00,0.0,2.02770,0.00040,404.992,0.034,0.1783,0.0020,139.999,45.000,31713.37109,2.03127,405.864,34.126,45.069,45.000,0.00,0.09,-272.74,-272.81,-6,522,-952,19.7,6.0,-18.9,19.9,6.0,-18.7,5.73,2.00,-13.0,26.1
2015-11-05 01:04:00,0.0,2.02820,0.00060,404.992,0.047,0.1778,0.0015,140.000,45.000,31714.21641,2.03180,405.862,34.165,45.069,45.000,0.00,0.09,-272.75,-272.81,-6,523,-952,19.7,6.0,-18.9,19.9,6.0,-18.7,5.73,1.88,-13.0,26.1
2015-11-05 01:05:00,0.0,2.02903,0.00037,405.038,0.052,0.1785,0.0019,139.998,45.000,31713.41035,2.03254,405.910,34.161,45.069,45.000,0.00,0.09,-272.75,-272.80,-6,523,-952,19.7,6.0,-18.9,19.9,6.1,-18.6,5.73,1.90,-13.0,26.1
2015-11-05 01:06:00,0.0,2.02876,0.00074,405.063,0.020,0.1775,0.0022,140.001,45.000,31714.41518,2.03236,405.931,34.176,45.069,45.000,0.00,0.09,-272.75,-272.80,-6,523,-952,19.7,6.0,-18.9,19.9,6.0,-18.6,5.73,2.05,-13.0,26.1
2015-11-05 01:07:00,0.0,2.02846,0.00138,405.061,0.049,0.1784,0.0020,140.000,45.000,31714.88501,2.03188,405.931,34.182,45.069,44.999,0.00,0.09,-272.76,-272.81,-6,523,-952,19.7,6.0,-18.9,19.9,6.0,-18.7,5.73,2.15,-13.0,26.1
2015-11-05 01:08:00,0.0,2.02988,0.00131,405.115,0.041,0.1777,0.0019,139.999,45.000,31712.27111,2.03346,405.985,34.183,45.069,45.000,0.00,0.09,-272.74,-272.81,-6,523,-952,19.7,6.0,-18.9,19.9,6.1,-18.6,5.73,2.06,-13.0,26.1
2015-11-05 01:09:00,0.0,2.03549,0.00097,405.322,0.044,0.1733,0.0027,139.998,45.000,31712.88379,2.03886,406.167,34.178,45.069,45.000,0.00,0.09,-272.74,-272.80,-6,523,-952,19.7,5.9,-19.2,19.9,6.0,-18.8,5.73,1.91,-13.0,26.1
2015-11-05 01:10:00,0.0,2.03100,0.00242,405.212,0.091,0.1704,0.0020,140.000,45.000,31715.24350,2.03461,406.048,34.154,45.069,45.000,0.00,0.09,-272.75,-272.81,-6,523,-952,19.7,5.8,-19.3,19.9,5.8,-19.0,5.73,1.87,-13.0,26.1
2015-11-05 01:11:00,0.0,2.02996,0.00085,405.162,0.042,0.1722,0.0019,140.000,45.000,31714.34106,2.03342,406.004,34.148,45.069,45.000,0.00,0.09,-272.75,-272.81,-6,523,-952,19.7,5.8,-19.3,19.9,5.8,-19.1,5.73,2.01,-13.0,26.1
2015-11-05 01:12:00,0.0,2.02993,0.00061,405.176,0.045,0.1727,0.0015,139.999,45.000,31713.03616,2.03332,406.019,34.175,45.069,45.000,0.00,0.09,-272.75,-272.80,-6,523,-952,19.7,5.8,-19.2,19.9,5.9,-19.0,5.73,2.13,-13.0,26.1
2015-11-05 01:13:00,0.0,2.03096,0.00109,405.237,0.068,0.1729,0.0019,140.001,45.000,31714.34098,2.03443,406.083,34.167,45.070,45.000,0.00,0.09,-272.74,-272.81,-6,523,-952,19.7,5.8,-19.2,19.9,5.9,-19.0,5.73,2.10,-13.0,26.1
2015-11-05 01:14:00,0.0,2.03065,0.00071,405.168,0.056,0.1739,0.0015,140.001,45.000,31715.32770,2.03421,406.020,34.169,45.069,45.000,0.00,0.09,-272.75,-272.81,-6,523,-952,19.7,5.9,-19.2,19.9,5.9,-18.9,5.73,1.95,-13.0,26.1
2015-11-05 01:15:00,0.0,2.03075,0.00130,405.195,0.085,0.1741,0.0016,140.000,45.000,31713.66326,2.03423,406.046,34.164,45.069,45.000,0.00,0.09,-272.74,-272.81,-6,523,-952,19.7,5.9,-19.1,19.9,5.9,-18.9,5.73,1.86,-12.9,26.1
2015-11-05 01:16:00,0.0,2.03090,0.00105,405.168,0.082,0.1756,0.0019,139.999,45.000,31712.79265,2.03431,406.023,34.169,45.069,45.000,0.00,0.09,-272.74,-272.80,-6,523,-952,19.7,5.9,-19.0,19.9,6.0,-18.8,5.73,1.96,-13.0,26.1
2015-11-05 01:17:00,0.0,2.03093,0.00087,405.182,0.061,0.1770,0.0019,140.000,45.000,31714.02863,2.03456,406.051,34.179,45.069,45.000,0.00,0.09,-272.76,-272.81,-6,523,-952,19.7,5.9,-19.0,19.9,6.0,-18.8,5.73,2.11,-12.9,26.1
2015-11-05 01:18:00,0.0,2.03001,0.00055,405.135,0.045,0.1768,0.0021,139.998,45.000,31715.11764,2.03355,405.999,34.180,45.069,45.000,0.00,0.09,-272.76,-272.81,-6,523,-952,19.7,5.9,-19.0,19.9,6.0,-18.8,5.73,2.13,-12.9,26.1
2015-11-05 01:19:00,0.0,2.03031,0.00099,405.172,0.060,0.1754,0.0022,139.999,45.000,31717.56391,2.03390,406.033,34.168,45.069,45.000,0.00,0.09,-272.75,-272.80,-5,523,-952,19.7,5.9,-19.1,19.9,6.0,-18.8,5.73,1.99,-12.9,26.1
2015-11-05 01:20:00,0.0,2.02930,0.00040,405.109,0.038,0.1742,0.0016,140.003,45.000,31717.19389,2.03278,405.960,34.179,45.069,45.000,0.00,0.09,-272.75,-272.81,-6,523,-952,19.7,5.9,-19.1,19.9,6.0,-18.8,5.73,1.87,-12.9,26.1
2015-11-05 01:21:00,0.0,2.02969,0.00046,405.119,0.044,0.1738,0.0016,139.998,45.000,31713.96346,2.03318,405.970,34.187,45.069,45.000,0.00,0.09,-272.76,-272.81,-6,523,-952,19.7,5.9,-19.1,19.9,5.9,-18.9,5.73,1.92,-12.9,26.1
2015-11-05 01:22:00,0.0,2.02929,0.00048,405.085,0.034,0.1761,0.0022,139.999,45.000,31714.46983,2.03284,405.946,34.185,45.069,45.000,0.00,0.09,-272.75,-272.80,-6,523,-952,19.7,5.9,-19.0,19.9,5.9,-18.8,5.73,2.07,-12.9,26.1
2015-11-05 01:23:00,0.0,2.02977,0.00068,405.142,0.069,0.1793,0.0017,140.002,45.000,31717.30237,2.03331,406.015,34.189,45.069,45.000,0.00,0.09,-272.75,-272.80,-7,523,-952,19.7,6.0,-18.8,19.9,6.0,-18.6,5.73,2.14,-12.9,26.1
2015-11-05 01:24:00,0.0,2.03125,0.00043,405.282,0.041,0.1804,0.0018,139.996,45.000,31716.44513,2.03485,406.164,34.190,45.069,45.000,0.00,0.09,-272.75,-272.81,-6,523,-952,19.7,6.1,-18.7,19.9,6.1,-18.5,5.73,2.04,-12.9,26.1
2015-11-05 01:25:00,0.0,2.03117,0.00056,405.264,0.049,0.1809,0.0017,140.000,45.000,31715.39424,2.03481,406.150,34.189,45.069,45.000,0.00,0.09,-272.74,-272.80,-6,523,-952,19.8,6.1,-18.6,19.9,6.1,-18.5,5.73,1.89,-12.9,26.1
2015-11-05 01:26:00,0.0,2.03197,0.00051,405.312,0.039,0.1828,0.0019,140.001,45.000,31717.72850,2.03561,406.204,34.188,45.069,45.000,0.00,0.09,-272.74,-272.81,-6,523,-952,19.8,6.1,-18.6,19.9,6.2,-18.4,5.73,1.89,-12.9,26.1
2015-11-05 01:27:00,0.0,2.03063,0.00141,405.199,0.108,0.1817,0.0019,140.002,45.000,31715.50887,2.03436,406.092,34.188,45.069,45.000,0.00,0.09,-272.75,-272.81,-6,523,-952,19.8,6.1,-18.6,20.0,6.2,-18.4,5.73,2.04,-12.9,26.1
2015-11-05 01:28:00,0.0,2.02954,0.00072,405.110,0.076,0.1822,0.0018,140.000,45.000,31713.92180,2.03322,406.000,34.190,45.069,45.000,0.00,0.09,-272.75,-272.81,-6,523,-952,19.8,6.1,-18.6,20.0,6.1,-18.5,5.73,2.14,-12.9,26.1
2015-11-05 01:29:00,0.0,2.02952,0.00053,405.076,0.048,0.1830,0.0015,139.998,45.000,31715.83579,2.03312,405.970,34.192,45.069,45.000,0.00,0.09,-272.74,-272.80,-6,523,-952,19.8,6.2,-18.5,19.9,6.2,-18.4,5.73,2.07,-12.9,26.1
2015-11-05 01:30:00,0.0,2.02999,0.00064,405.157,0.037,0.1868,0.0025,139.999,45.000,31718.65935,2.03375,406.070,34.189,45.069,45.000,0.00,0.09,-272.74,-272.81,-7,523,-952,19.8,6.2,-18.4,20.0,6.3,-18.2,5.73,1.91,-12.9,26.1
2015-11-05 01:31:00,0.0,2.02900,0.00041,405.196,0.032,0.1876,0.0020,140.002,45.000,31719.75556,2.03279,406.114,34.187,45.069,45.000,0.00,0.09,-272.75,-272.81,-7,523,-952,19.8,6.3,-18.2,20.0,6.3,-18.1,5.73,1.87,-12.9,26.2
2015-11-05 01:32:00,0.0,2.02828,0.00041,405.200,0.032,0.1886,0.0015,139.999,45.000,31717.69699,2.03209,406.122,34.187,45.069,45.000,0.00,0.09,-272.76,-272.80,-6,523,-952,19.8,6.4,-18.1,20.0,6.4,-17.9,5.73,2.00,-12.9,26.2
2015-11-05 01:33:00,0.0,2.02827,0.00040,405.146,0.094,0.1857,0.0020,140.000,45.000,31716.55395,2.03197,406.058,34.188,45.070,45.000,0.00,0.09,-272.76,-272.80,-6,523,-952,19.8,6.3,-18.3,20.0,6.3,-18.1,5.73,2.14,-12.9,26.2
2015-11-05 01:34:00,0.0,2.02845,0.00050,405.053,0.034,0.1862,0.0018,140.001,45.000,31718.67047,2.03219,405.963,34.188,45.070,45.000,0.00,0.09,-272.76,-272.81,-6,523,-952,19.8,6.2,-18.4,20.0,6.3,-18.2,5.73,2.09,-12.9,26.2
2015-11-05 01:35:00,0.0,2.02896,0.00045,405.113,0.034,0.1911,0.0027,139.999,45.000,31717.45217,2.03277,406.048,34.188,45.070,45.000,0.00,0.09,-272.75,-272.81,-6,523,-952,19.8,6.4,-18.0,20.0,6.4,-17.9,5.73,1.93,-12.9,26.2
2015-11-05 01:36:00,0.0,2.02891,0.00043,405.190,0.056,0.1889,0.0023,139.997,45.000,31717.76342,2.03270,406.112,34.188,45.069,45.000,0.00,0.09,-272.75,-272.80,-6,523,-952,19.8,6.3,-18.2,20.0,6.4,-17.9,5.73,1.86,-12.9,26.2
2015-11-05 01:37:00,0.0,2.02845,0.00068,405.237,0.033,0.1832,0.0019,140.001,45.000,31720.48564,2.03219,406.136,34.188,45.069,45.000,0.00,0.09,-272.76,-272.81,-7,523,-952,19.8,6.2,-18.5,20.0,6.3,-18.2,5.73,1.98,-12.9,26.2
2015-11-05 01:38:00,0.0,2.02742,0.00045,405.193,0.038,0.1822,0.0021,140.001,45.000,31720.58578,2.03106,406.083,34.188,45.069,45.000,0.00,0.09,-272.75,-272.81,-7,523,-952,19.8,6.1,-18.6,20.0,6.2,-18.4,5.73,2.13,-12.9,26.2
2015-11-05 01:39:00,0.0,2.02705,0.00041,405.251,0.044,0.1828,0.0013,140.000,45.000,31721.33932,2.03073,406.146,34.189,45.069,45.000,0.00,0.09,-272.74,-272.80,-6,523,-952,19.8,6.1,-18.5,20.0,6.2,-18.3,5.73,2.10,-12.9,26.2
2015-11-05 01:40:00,0.0,2.02762,0.00062,405.295,0.039,0.1819,0.0017,139.997,45.000,31719.39246,2.03122,406.184,34.190,45.069,45.000,0.00,0.09,-272.74,-272.81,-6,523,-952,19.8,6.1,-18.6,20.0,6.2,-18.4,5.73,1.95,-12.9,26.2
2015-11-05 01:41:00,0.0,2.02735,0.00045,405.273,0.057,0.1796,0.0017,140.000,45.000,31722.10781,2.03096,406.155,34.190,45.069,45.000,0.00,0.09,-272.75,-272.81,-6,523,-952,19.8,6.1,-18.7,20.0,6.1,-18.5,5.73,1.86,-12.9,26.2
2015-11-05 01:42:00,0.0,2.02678,0.00034,405.126,0.036,0.1815,0.0017,139.997,45.000,31720.49177,2.03047,406.015,34.188,45.069,45.000,0.00,0.09,-272.75,-272.81,-6,523,-952,19.8,6.1,-18.7,20.0,6.1,-18.5,5.73,1.97,-12.9,26.2
2015-11-05 01:43:00,0.0,2.02628,0.00043,405.085,0.043,0.1819,0.0017,140.001,45.000,31721.14590,2.02994,405.977,34.190,45.069,45.000,0.00,0.09,-272.75,-272.80,-6,523,-952,19.8,6.1,-18.6,20.0,6.1,-18.4,5.73,2.12,-12.9,26.2
2015-11-05 01:44:00,0.0,2.02598,0.00055,405.033,0.041,0.1824,0.0019,140.000,45.000,31721.43431,2.02961,405.924,34.200,45.069,45.000,0.00,0.09,-272.75,-272.81,-6,523,-952,19.8,6.1,-18.6,20.0,6.2,-18.4,5.73,2.12,-12.9,26.2
2015-11-05 01:45:00,0.0,2.02597,0.00045,405.065,0.033,0.1795,0.0018,140.002,45.000,31723.39469,2.02959,405.944,34.192,45.069,45.000,0.00,0.09,-272.75,-272.81,-7,523,-952,19.8,6.0,-18.8,20.0,6.1,-18.5,5.73,1.97,-12.9,26.2